FW0765 Weather Reports


Display with metric or nautical units.
time (UTC)temp
F
wind
direction
speed
MPH
gust
MPH
rain 1hr
in
rain 24hr
in
rain mn
in
humidity
%
barometer
mb
20260507224513 56 129 2.0 5.0 0.01 0.20 0.20 90 1015.8
20260507223004 56 135 1.0 4.0 0.01 0.20 0.20 89 1016.2
20260507221503 56 135 0.0 5.0 0.01 0.20 0.20 89 1016.2
20260507220002 56 136 3.0 7.0 0.00 0.19 0.19 88 1016.4
20260507214501 56 105 2.0 6.0 0.02 0.19 0.19 88 1016.5
20260507213004 56 96 1.0 9.0 0.02 0.19 0.19 88 1016.6
20260507211502 56 142 5.0 11.0 0.02 0.19 0.19 88 1017.3
20260507210100 56 110 3.0 7.0 0.02 0.19 0.19 89 1017.4
20260507204612 56 59 1.0 6.0 0.00 0.17 0.17 89 1017.3
20260507203100 55 66 3.0 6.0 0.04 0.17 0.17 88 1017.3
20260507201559 55 71 3.0 9.0 0.17 0.17 0.17 88 1017.6
20260507200058 55 95 4.0 8.0 0.17 0.17 0.17 88 1017.7
20260507194558 54 91 5.0 12.0 0.17 0.17 0.17 86 1017.5
20260507193108 55 78 10.0 16.0 0.13 0.13 0.13 82 1017.6
20260507191559 58 227 4.0 11.0 0.00 0.00 0.00 78 1018.4
20260507184555 59 145 4.0 11.0 0.00 0.00 0.00 69 1018.5
20260507183059 60 142 3.0 10.0 0.00 0.00 0.00 69 1018.1
20260507181554 60 85 4.0 11.0 0.00 0.00 0.00 70 1018.3
20260507180054 60 86 6.0 15.0 0.00 0.00 0.00 67 1018.1
20260507174553 60 78 5.0 10.0 0.00 0.00 0.00 68 1018.9
20260507173055 61 78 8.0 14.0 0.00 0.00 0.00 65 1018.4
20260507171554 60 74 8.0 16.0 0.00 0.00 0.00 67 1018.5
20260507170050 60 51 8.0 14.0 0.00 0.00 0.00 68 1018.7
20260507164543 59 57 7.0 13.0 0.00 0.00 0.00 71 1018.8
20260507163042 58 92 6.0 12.0 0.00 0.00 0.00 72 1018.8
20260507161542 57 63 6.0 14.0 0.00 0.00 0.00 73 1018.8
20260507160039 58 76 6.0 13.0 0.00 0.00 0.00 73 1019.2
20260507154540 57 87 7.0 15.0 0.00 0.00 0.00 75 1019.1
20260507153045 57 67 8.0 17.0 0.00 0.00 0.00 75 1019.1
20260507151535 56 68 7.0 13.0 0.00 0.00 0.00 77 1019.1
20260507150034 55 65 8.0 15.0 0.00 0.00 0.00 78 1019.3
20260507144534 55 74 6.0 13.0 0.00 0.00 0.00 80 1019.5
20260507143032 55 51 9.0 15.0 0.00 0.00 0.00 81 1019.0
20260507141531 54 78 6.0 13.0 0.00 0.00 0.00 82 1019.6
20260507140034 54 53 6.0 14.0 0.00 0.00 0.00 83 1019.4
20260507134530 54 102 5.0 12.0 0.00 0.02 0.00 83 1019.4
20260507133028 54 59 6.0 12.0 0.00 0.02 0.00 84 1019.8
20260507131527 53 32 5.0 14.0 0.00 0.02 0.00 85 1019.4
20260507130026 53 44 7.0 14.0 0.00 0.02 0.00 85 1019.5
20260507124526 53 61 8.0 15.0 0.00 0.03 0.00 85 1019.5
20260507123026 53 59 4.0 13.0 0.00 0.03 0.00 86 1019.3
20260507121521 53 67 5.0 14.0 0.00 0.03 0.00 86 1019.0
20260507120019 53 43 10.0 19.0 0.00 0.03 0.00 85 1019.0
20260507114515 54 28 5.0 15.0 0.00 0.03 0.00 85 1018.9
20260507113021 54 63 7.0 16.0 0.00 0.03 0.00 85 1018.6
20260507111513 54 44 6.0 14.0 0.00 0.03 0.00 86 1018.5
20260507110009 54 24 7.0 14.0 0.00 0.03 0.00 85 1018.3
20260507104510 54 41 7.0 15.0 0.00 0.03 0.00 85 1018.1
20260507103008 54 43 7.0 15.0 0.00 0.03 0.00 84 1018.0
20260507101504 55 39 9.0 18.0 0.00 0.03 0.00 83 1018.0
20260507100003 55 24 8.0 16.0 0.00 0.03 0.00 83 1018.1
20260507094559 55 76 8.0 15.0 0.00 0.03 0.00 83 1018.0
20260507093056 55 31 8.0 13.0 0.00 0.03 0.00 83 1018.1
20260507091552 56 86 7.0 12.0 0.00 0.03 0.00 83 1017.8
20260507090050 56 51 3.0 11.0 0.00 0.03 0.00 83 1017.6
20260507084553 56 49 4.0 10.0 0.00 0.03 0.00 83 1017.4
20260507083050 56 71 4.0 10.0 0.00 0.03 0.00 83 1017.6
20260507081645 57 80 4.0 11.0 0.00 0.03 0.00 84 1017.1
20260507080100 56 61 3.0 10.0 0.00 0.03 0.00 84 1017.0
20260507074545 56 46 5.0 10.0 0.00 0.03 0.00 85 1016.8
20260507073040 57 57 4.0 7.0 0.00 0.03 0.00 88 1016.9
20260507071553 57 67 3.0 9.0 0.00 0.03 0.00 89 1016.3
20260507070036 57 54 3.0 9.0 0.00 0.03 0.00 89 1016.1
20260507064533 56 58 1.0 3.0 0.00 0.03 0.00 89 1016.1
20260507063035 56 57 2.0 5.0 0.00 0.03 0.00 89 1015.7
20260507061532 56 58 3.0 6.0 0.00 0.03 0.00 88 1015.5
20260507060030 56 66 1.0 4.0 0.00 0.03 0.00 88 1015.6
20260507054528 56 62 1.0 5.0 0.00 0.03 0.00 88 1015.6
20260507053027 57 65 1.0 5.0 0.00 0.03 0.00 87 1016.0
20260507051526 57 59 1.0 6.0 0.00 0.03 0.00 87 1015.5
20260507050022 57 63 3.0 6.0 0.00 0.03 0.00 86 1015.3
20260507044521 58 128 0.0 2.0 0.00 0.03 0.03 85 1015.2
20260507043024 59 128 0.0 3.0 0.00 0.03 0.03 85 1015.2
20260507041517 59 128 1.0 4.0 0.00 0.03 0.03 84 1014.8
20260507040016 59 128 1.0 3.0 0.00 0.03 0.03 83 1014.6
20260507034515 59 128 1.0 3.0 0.00 0.03 0.03 82 1014.3
20260507033012 60 128 2.0 4.0 0.00 0.03 0.03 81 1014.2
20260507031510 60 128 2.0 3.0 0.00 0.03 0.03 80 1013.9
20260507030011 61 128 1.0 4.0 0.00 0.03 0.03 79 1013.6
20260507024507 62 126 2.0 5.0 0.00 0.03 0.03 77 1013.5
20260507023007 62 113 1.0 6.0 0.00 0.03 0.03 76 1013.1
20260507021511 63 110 1.0 7.0 0.00 0.03 0.03 74 1012.8
20260507020007 64 90 2.0 7.0 0.00 0.03 0.03 72 1012.5
20260507014505 65 115 2.0 7.0 0.00 0.03 0.03 70 1012.6
20260507013005 66 71 2.0 6.0 0.00 0.03 0.03 68 1012.4
20260507011504 67 92 3.0 5.0 0.00 0.03 0.03 66 1012.3
20260507010004 69 69 3.0 10.0 0.00 0.03 0.03 62 1012.0
20260507004503 70 64 4.0 10.0 0.00 0.03 0.03 60 1011.9
20260507003005 70 72 5.0 10.0 0.00 0.03 0.03 60 1011.9
20260507001501 71 65 3.0 10.0 0.00 0.03 0.03 58 1011.6
20260507000002 72 36 5.0 11.0 0.00 0.03 0.03 56 1011.4
20260506234606 72 88 5.0 9.0 0.00 0.03 0.03 58 1011.5
20260506233059 72 55 4.0 10.0 0.00 0.03 0.03 57 1011.4
20260506231559 72 84 5.0 9.0 0.00 0.03 0.03 57 1011.5
20260506230059 73 68 5.0 10.0 0.00 0.03 0.03 57 1011.4